TimeCDT,TemperatureF,Dew PointF,Humidity,Sea Level PressureIn,VisibilityMPH,Wind Direction,Wind SpeedMPH,Gust SpeedMPH,PrecipitationIn,Events,Conditions,WindDirDegrees,DateUTC
12:53 AM,43.0,41.0,93,30.20,-9999.0,Calm,Calm,-,N/A,,Clear,0,2011-10-31 05:53:00
1:53 AM,43.0,41.0,93,30.20,-9999.0,Calm,Calm,-,N/A,,Clear,0,2011-10-31 06:53:00
2:53 AM,42.1,39.9,92,30.20,-9999.0,Calm,Calm,-,N/A,,Clear,0,2011-10-31 07:53:00
3:53 AM,39.9,37.9,93,30.19,-9999.0,Calm,Calm,-,N/A,,Clear,0,2011-10-31 08:53:00
4:53 AM,39.9,39.0,97,30.19,-9999.0,Calm,Calm,-,N/A,,Clear,0,2011-10-31 09:53:00
6:53 AM,39.0,37.0,93,30.20,-9999.0,Calm,Calm,-,N/A,,Clear,0,2011-10-31 11:53:00
7:53 AM,41.0,39.0,93,30.21,-9999.0,Calm,Calm,-,N/A,,Clear,0,2011-10-31 12:53:00
8:53 AM,48.9,46.9,93,30.23,-9999.0,Calm,Calm,-,N/A,,Clear,0,2011-10-31 13:53:00
9:53 AM,57.9,48.0,70,30.23,-9999.0,Calm,Calm,-,N/A,,Clear,0,2011-10-31 14:53:00
10:53 AM,64.9,37.9,37,30.22,10.0,NW,6.9,-,N/A,,Clear,320,2011-10-31 15:53:00
11:53 AM,68.0,36.0,31,30.21,10.0,Variable,5.8,-,N/A,,Clear,0,2011-10-31 16:53:00
12:53 PM,70.0,37.0,30,30.19,10.0,North,5.8,-,N/A,,Clear,10,2011-10-31 17:53:00
1:53 PM,71.1,37.0,29,30.17,10.0,Variable,5.8,-,N/A,,Clear,0,2011-10-31 18:53:00
2:53 PM,72.0,37.0,28,30.14,10.0,North,8.1,-,N/A,,Clear,10,2011-10-31 19:53:00
3:53 PM,73.0,36.0,26,30.13,10.0,North,8.1,-,N/A,,Clear,360,2011-10-31 20:53:00
4:53 PM,72.0,37.9,29,30.13,10.0,NNE,8.1,-,N/A,,Clear,20,2011-10-31 21:53:00
5:53 PM,70.0,39.0,32,30.14,10.0,Calm,Calm,-,N/A,,Clear,0,2011-10-31 22:53:00
6:53 PM,60.1,43.0,53,30.16,10.0,Calm,Calm,-,N/A,,Clear,0,2011-10-31 23:53:00
7:53 PM,54.0,43.0,66,30.18,10.0,NNW,4.6,-,N/A,,Clear,340,2011-11-01 00:53:00
8:53 PM,50.0,42.1,74,30.19,10.0,Calm,Calm,-,N/A,,Clear,0,2011-11-01 01:53:00
10:53 PM,48.0,41.0,77,30.20,10.0,Calm,Calm,-,N/A,,Clear,0,2011-11-01 03:53:00
11:53 PM,46.0,41.0,83,30.20,10.0,Calm,Calm,-,N/A,,Clear,0,2011-11-01 04:53:00